Weather in Bujumbura

Burundi     3°22′11″S   29°22′20″E
temp.,
°C
wind,
m/s
gust,
m/s
humid.,
%
clouds,
%
prec.,
mm/h
press.,
hPa
HPBL,
m
13 august, sat
sat1323:00+23n225419 0.0 101263
02:00+21n115717 0.0 101134
05:00+21ne116090 0.0 101232
08:00+23nw1154100 0.2 1014197
11:00+27s3446100 0.0 1013975
14:00+28s554298 0.1 1009851
17:00+27sse334085 0.0 1008396
20:00+23sse115764 0.0 101117
14 august, sun
sun1423:00+23sse015918 0.0 101313
02:00+21n125755 0.0 101141
05:00+21n225713 0.0 101146
08:00+25nne224433 0.0 1013363
11:00+30sse33355 0.0 10111119
14:00+29s673817 0.0 1008759
17:00+28s574115 0.0 1007433
20:00+25wsw115517 0.0 100913
15 august, mon
mon1523:00+23n22505 0.0 101126
02:00+22n225090 0.0 100952
05:00+22nnw125040 0.0 101035
08:00+26n224011 0.0 1011370
11:00+31s343117 0.0 10091470
14:00+30ssw893519 0.0 10071150
17:00+29s711415 0.0 1007860
20:00+25ssw125182 0.0 100918
16 august, tue
tue1623:00+24nnw224431 0.0 101029
02:00+23nnw2245100 0.0 100934
05:00+22nnw224597 0.0 101045
08:00+26n34365 0.0 1011404
11:00+29s783492 0.0 10111005
14:00+31sse793186 0.0 10081037
17:00+29s693437 0.0 1007615
20:00+25ene114127 0.0 100917
17 august, wed
wed1723:00+24nnw123915 0.0 101120
02:00+23nnw013973 0.0 101013
05:00+22n224399 0.0 101135
08:00+26se233784 0.0 1014352
11:00+28s683692 0.0 10131038
14:00+29sse793491 0.0 1009856
17:00+28s71036100 0.0 1008573
20:00+24se224892 0.0 101037